| time (UTC) | temp C | wind direction | speed KPH | gust KPH | rain 1hr cm | rain 24hr cm | rain mn cm | humidity % | barometer mb |
| 20260510143036 | 20 | 351 | 43.5 | 54.7 | 0.00 | 0.00 | 0.00 | 58 | 1006.3 |
| 20260510141522 | 20 | 19 | 45.1 | 56.3 | 0.00 | 0.00 | 0.00 | 50 | 1005.8 |
| 20260510140015 | 20 | 13 | 25.7 | 38.6 | 0.00 | 0.00 | 0.00 | 34 | 1005.2 |
| 20260510134512 | 19 | 13 | 17.7 | 32.2 | 0.00 | 0.00 | 0.00 | 35 | 1004.8 |
| 20260510133011 | 18 | 346 | 1.6 | 14.5 | 0.00 | 0.00 | 0.00 | 40 | 1004.5 |
| 20260510131509 | 17 | 339 | 0.0 | 14.5 | 0.00 | 0.00 | 0.00 | 43 | 1004.1 |
| 20260510130012 | 15 | 329 | 0.0 | 1.6 | 0.00 | 0.00 | 0.00 | 46 | 1003.7 |
| 20260510124505 | 15 | 329 | 0.0 | 8.0 | 0.00 | 0.00 | 0.00 | 46 | 1003.5 |
| 20260510123005 | 15 | 338 | 11.3 | 19.3 | 0.00 | 0.00 | 0.00 | 45 | 1003.2 |
| 20260510121559 | 16 | 98 | 0.0 | 0.0 | 0.00 | 0.00 | 0.00 | 41 | 1002.4 |
| 20260510120054 | 17 | 98 | 0.0 | 3.2 | 0.00 | 0.00 | 0.00 | 39 | 1001.9 |
| 20260510114552 | 17 | 98 | 0.0 | 4.8 | 0.00 | 0.00 | 0.00 | 39 | 1001.8 |
| 20260510113049 | 17 | 98 | 0.0 | 0.0 | 0.00 | 0.00 | 0.00 | 39 | 1001.9 |
| 20260510111545 | 17 | 98 | 0.0 | 4.8 | 0.00 | 0.00 | 0.00 | 38 | 1001.9 |
| 20260510110044 | 17 | 107 | 0.0 | 1.6 | 0.00 | 0.00 | 0.00 | 38 | 1001.7 |
| 20260510104540 | 17 | 107 | 0.0 | 4.8 | 0.00 | 0.00 | 0.00 | 38 | 1001.6 |
| 20260510103035 | 17 | 114 | 0.0 | 1.6 | 0.00 | 0.00 | 0.00 | 37 | 1001.5 |
| 20260510101534 | 18 | 114 | 0.0 | 1.6 | 0.00 | 0.00 | 0.00 | 36 | 1001.3 |
| 20260510100029 | 19 | 114 | 0.0 | 0.0 | 0.00 | 0.00 | 0.00 | 31 | 1001.2 |
| 20260510094543 | 20 | 114 | 0.0 | 0.0 | 0.00 | 0.00 | 0.00 | 29 | 1001.0 |
| 20260510093026 | 20 | 114 | 0.0 | 1.6 | 0.00 | 0.00 | 0.00 | 28 | 1000.7 |
| 20260510091525 | 21 | 114 | 0.0 | 6.4 | 0.00 | 0.00 | 0.00 | 28 | 1000.9 |
| 20260510090024 | 20 | 114 | 0.0 | 0.0 | 0.00 | 0.00 | 0.00 | 28 | 1000.8 |
| 20260510084521 | 21 | 114 | 1.6 | 11.3 | 0.00 | 0.00 | 0.00 | 26 | 1000.8 |
| 20260510083017 | 21 | 114 | 1.6 | 14.5 | 0.00 | 0.00 | 0.00 | 26 | 1001.2 |
| 20260510081517 | 21 | 57 | 1.6 | 6.4 | 0.00 | 0.00 | 0.00 | 24 | 1001.1 |
| 20260510080014 | 20 | 13 | 0.0 | 8.0 | 0.00 | 0.00 | 0.00 | 29 | 1001.7 |
| 20260510074509 | 20 | 342 | 14.5 | 17.7 | 0.00 | 0.00 | 0.00 | 27 | 1002.1 |
| 20260510073008 | 21 | 224 | 0.0 | 9.7 | 0.00 | 0.00 | 0.00 | 25 | 1001.8 |
| 20260510071501 | 22 | 205 | 3.2 | 8.0 | 0.00 | 0.00 | 0.00 | 24 | 1001.6 |
| 20260510070057 | 22 | 180 | 0.0 | 6.4 | 0.00 | 0.00 | 0.00 | 23 | 1001.2 |
| 20260510064553 | 22 | 180 | 1.6 | 12.9 | 0.00 | 0.00 | 0.00 | 22 | 1001.1 |
| 20260510063052 | 23 | 177 | 1.6 | 8.0 | 0.00 | 0.00 | 0.00 | 21 | 1001.2 |
| 20260510061552 | 23 | 175 | 3.2 | 12.9 | 0.00 | 0.00 | 0.00 | 20 | 1001.3 |
| 20260510060047 | 23 | 175 | 3.2 | 11.3 | 0.00 | 0.00 | 0.00 | 19 | 1001.4 |
| 20260510054549 | 23 | 169 | 4.8 | 12.9 | 0.00 | 0.00 | 0.00 | 19 | 1001.5 |
| 20260510053058 | 24 | 169 | 1.6 | 12.9 | 0.00 | 0.00 | 0.00 | 18 | 1001.4 |
| 20260510051646 | 24 | 171 | 0.0 | 6.4 | 0.00 | 0.00 | 0.00 | 18 | 1001.3 |
| 20260510050044 | 25 | 173 | 0.0 | 9.7 | 0.00 | 0.00 | 0.00 | 18 | 1001.4 |
| 20260510044546 | 25 | 169 | 4.8 | 14.5 | 0.00 | 0.00 | 0.00 | 18 | 1001.4 |
| 20260510043055 | 24 | 173 | 0.0 | 6.4 | 0.00 | 0.00 | 0.00 | 18 | 1001.4 |
| 20260510041543 | 24 | 174 | 1.6 | 6.4 | 0.00 | 0.00 | 0.00 | 19 | 1001.3 |
| 20260510040043 | 23 | 175 | 8.0 | 12.9 | 0.00 | 0.00 | 0.00 | 21 | 1001.3 |
| 20260510034537 | 23 | 222 | 0.0 | 6.4 | 0.00 | 0.00 | 0.00 | 22 | 1000.9 |
| 20260510033033 | 25 | 222 | 0.0 | 3.2 | 0.00 | 0.00 | 0.00 | 18 | 1000.8 |
| 20260510031531 | 25 | 222 | 0.0 | 3.2 | 0.00 | 0.00 | 0.00 | 19 | 1000.6 |
| 20260510030025 | 26 | 222 | 0.0 | 3.2 | 0.00 | 0.00 | 0.00 | 18 | 1000.4 |
| 20260510024520 | 26 | 222 | 0.0 | 1.6 | 0.00 | 0.00 | 0.00 | 18 | 1000.3 |
| 20260510023015 | 28 | 222 | 0.0 | 1.6 | 0.00 | 0.00 | 0.00 | 15 | 1000.0 |
| 20260510021523 | 30 | 222 | 6.4 | 9.7 | 0.00 | 0.00 | 0.00 | 13 | 999.8 |
| 20260510020006 | 30 | 222 | 8.0 | 11.3 | 0.00 | 0.00 | 0.00 | 12 | 999.6 |
| 20260510014503 | 31 | 222 | 3.2 | 8.0 | 0.00 | 0.00 | 0.00 | 12 | 999.5 |
| 20260510013058 | 31 | 222 | 0.0 | 8.0 | 0.00 | 0.00 | 0.00 | 12 | 999.4 |
| 20260510011554 | 32 | 222 | 0.0 | 4.8 | 0.00 | 0.00 | 0.00 | 12 | 999.4 |
| 20260510010055 | 32 | 222 | 6.4 | 16.1 | 0.00 | 0.00 | 0.00 | 11 | 999.5 |
| 20260510004553 | 32 | 224 | 11.3 | 22.5 | 0.00 | 0.00 | 0.00 | 10 | 999.4 |
| 20260510003052 | 32 | 223 | 3.2 | 14.5 | 0.00 | 0.00 | 0.00 | 10 | 999.5 |
| 20260510001550 | 32 | 214 | 8.0 | 24.1 | 0.00 | 0.00 | 0.00 | 11 | 999.5 |
| 20260510000056 | 33 | 225 | 14.5 | 24.1 | 0.00 | 0.00 | 0.00 | 10 | 999.7 |
| 20260509234548 | 32 | 215 | 16.1 | 24.1 | 0.00 | 0.00 | 0.00 | 10 | 999.7 |
| 20260509233047 | 32 | 209 | 4.8 | 19.3 | 0.00 | 0.00 | 0.00 | 11 | 1000.0 |
| 20260509231546 | 32 | 191 | 14.5 | 24.1 | 0.00 | 0.00 | 0.00 | 11 | 999.9 |
| 20260509230048 | 32 | 184 | 9.7 | 19.3 | 0.00 | 0.00 | 0.00 | 11 | 1000.2 |
| 20260509224543 | 32 | 207 | 1.6 | 16.1 | 0.00 | 0.00 | 0.00 | 11 | 1000.3 |
| 20260509223041 | 32 | 204 | 11.3 | 27.4 | 0.00 | 0.00 | 0.00 | 11 | 1000.5 |
| 20260509221544 | 32 | 266 | 11.3 | 22.5 | 0.00 | 0.00 | 0.00 | 11 | 1000.6 |
| 20260509220038 | 32 | 227 | 4.8 | 17.7 | 0.00 | 0.00 | 0.00 | 11 | 1000.8 |
| 20260509214544 | 32 | 281 | 8.0 | 20.9 | 0.00 | 0.00 | 0.00 | 11 | 1001.0 |
| 20260509213035 | 32 | 302 | 9.7 | 17.7 | 0.00 | 0.00 | 0.00 | 11 | 1001.4 |
| 20260509211529 | 32 | 242 | 20.9 | 27.4 | 0.00 | 0.00 | 0.00 | 11 | 1001.5 |
| 20260509210030 | 32 | 239 | 17.7 | 25.7 | 0.00 | 0.00 | 0.00 | 11 | 1001.9 |
| 20260509204525 | 32 | 228 | 9.7 | 19.3 | 0.00 | 0.00 | 0.00 | 11 | 1002.0 |
| 20260509203024 | 32 | 234 | 1.6 | 29.0 | 0.00 | 0.00 | 0.00 | 12 | 1002.3 |
| 20260509201519 | 32 | 168 | 14.5 | 29.0 | 0.00 | 0.00 | 0.00 | 12 | 1002.5 |
| 20260509200015 | 31 | 239 | 11.3 | 24.1 | 0.00 | 0.00 | 0.00 | 13 | 1002.9 |
| 20260509194513 | 31 | 269 | 11.3 | 20.9 | 0.00 | 0.00 | 0.00 | 14 | 1003.1 |
| 20260509193021 | 31 | 230 | 8.0 | 27.4 | 0.00 | 0.00 | 0.00 | 13 | 1003.4 |
| 20260509191507 | 30 | 207 | 16.1 | 16.1 | 0.00 | 0.00 | 0.00 | 15 | 1003.5 |
| 20260509183012 | 29 | 188 | 9.7 | 27.4 | 0.00 | 0.00 | 0.00 | 16 | 1004.2 |
| 20260509181508 | 28 | 196 | 16.1 | 24.1 | 0.00 | 0.00 | 0.00 | 17 | 1004.5 |
| 20260509180006 | 28 | 219 | 17.7 | 32.2 | 0.00 | 0.00 | 0.00 | 18 | 1004.9 |
| 20260509174503 | 28 | 225 | 14.5 | 24.1 | 0.00 | 0.00 | 0.00 | 19 | 1005.0 |
| 20260509173101 | 27 | 196 | 8.0 | 22.5 | 0.00 | 0.00 | 0.00 | 22 | 1005.2 |
| 20260509171558 | 27 | 203 | 12.9 | 20.9 | 0.00 | 0.00 | 0.00 | 23 | 1005.4 |
| 20260509170054 | 26 | 200 | 3.2 | 24.1 | 0.00 | 0.00 | 0.00 | 25 | 1005.6 |
| 20260509164547 | 25 | 192 | 6.4 | 17.7 | 0.00 | 0.00 | 0.00 | 27 | 1005.7 |
| 20260509163044 | 25 | 202 | 3.2 | 14.5 | 0.00 | 0.00 | 0.00 | 28 | 1005.8 |
| 20260509161539 | 23 | 192 | 3.2 | 14.5 | 0.00 | 0.00 | 0.00 | 30 | 1005.9 |
| 20260509160034 | 23 | 184 | 1.6 | 14.5 | 0.00 | 0.00 | 0.00 | 32 | 1006.0 |
| 20260509154531 | 22 | 207 | 6.4 | 16.1 | 0.00 | 0.00 | 0.00 | 32 | 1006.0 |
| 20260509153035 | 21 | 207 | 4.8 | 14.5 | 0.00 | 0.00 | 0.00 | 35 | 1006.1 |
| 20260509151523 | 21 | 192 | 1.6 | 11.3 | 0.00 | 0.00 | 0.00 | 37 | 1006.4 |
| 20260509150018 | 20 | 206 | 0.0 | 8.0 | 0.00 | 0.00 | 0.00 | 38 | 1006.4 |
| 20260509144513 | 19 | 198 | 0.0 | 1.6 | 0.00 | 0.00 | 0.00 | 40 | 1006.6 |